Location: Pulvis Stellarum Observatory
(41.6962°N, 71.4263°W)
Time: 01:16:39
(UTC-04:00)

Cosmos 1758 - Visible Passes

Search period start: 20 April 2018 00:00
Search period end: 30 April 2018 00:00
Orbit: 540 x 565 km, 82.5° (Epoch: 19 April)

Date Brightness Start Highest point End Pass type
(mag) Time Alt. Az. Time Alt. Az. Time Alt. Az.
20 Apr 3.4 04:27:43 10° N 04:31:43 80° E 04:35:40 10° S visible
21 Apr 3.2 04:24:11 10° N 04:28:10 89° E 04:32:09 10° S visible
22 Apr 3.2 04:20:39 10° N 04:24:38 81° W 04:28:36 10° S visible
23 Apr 3.2 04:17:08 10° NNW 04:21:06 71° W 04:24:24 14° S visible
24 Apr 3.2 04:13:37 10° NNW 04:17:33 63° W 04:20:02 21° S visible
25 Apr 6.4 02:36:03 10° NE 02:37:10 11° ENE 02:38:18 10° E visible
25 Apr 3.3 04:10:07 10° NNW 04:14:01 55° W 04:15:49 29° SSW visible
26 Apr 6.2 02:32:01 10° NE 02:33:41 12° ENE 02:35:22 10° E visible
26 Apr 3.5 04:06:38 10° NNW 04:10:28 48° W 04:11:42 35° SW visible
27 Apr 6.1 02:28:08 10° NE 02:30:12 14° ENE 02:31:56 11° E visible
27 Apr 3.7 04:03:08 10° NNW 04:06:56 43° W 04:07:40 38° WSW visible
28 Apr 5.9 02:24:20 10° NE 02:26:43 15° ENE 02:27:58 14° E visible
28 Apr 3.8 03:59:40 10° NNW 04:03:23 38° W 04:03:42 37° WSW visible
29 Apr 5.8 02:20:35 10° NNE 02:23:14 17° ENE 02:24:03 16° E visible
29 Apr 4.0 03:56:12 10° NNW 03:59:48 34° W 03:59:48 34° W visible
